Tracking 19242 objects as of 18-Sep-2018
HD Live streaming from Space Station
objects crossing your sky now

FENGYUN 1C DEB

Track FENGYUN 1C DEB now!
10-day predictions


NORAD ID: 31226
Int'l Code: 1999-025BLG
Perigee: 729.6 km
Apogee: 914.8 km
Inclination: 98.6 °
Period: 101.2 minutes
Semi major axis: 7193 km
RCS: 0.0061 m2 (small)
Launch date: May 10, 1999
Source: People's Republic of China (PRC)
Launch site: Taiyaun Space Center, China (TSC)

Note: This is SATELLITE DEBRIS
aabbcc
Your satellite tracking list
Your tracking list is empty




NASA's NSSDC Master Catalog

Two Line Element Set (TLE):
1 31226U 99025BLG 18261.41065706  .00000068  00000-0  45570-4 0  9995
2 31226  98.6144 324.4310 0128701 358.7525   1.3315 14.23040989596091
Source of the keplerian elements: AFSPC